Torna al catalogo

COSMOS 1285 DEB

AttivoHEO
NORAD 13961·DEBRIS·🇷🇺 Russia

Lanciato Aug 4, 1981 da Plesetsk Cosmodrome

Loading…

Prossimi Passaggi (prossime 24 ore)

TLE

AggiornatoSource: Space-Track

Epoca: Sep 10, 2026, 04:39 UTC

1 13961U 81071F   26253.19385913  .00000392  00000-0  00000+0 0  9997
2 13961  70.8466  73.2022 5483433 334.3905   6.3720  1.98119795323967

Traccia COSMOS 1285 DEB in tempo reale con AllMySat

Download on the App Store